DW2213 Weather Reports


time (UTC)temp
F
wind
direction
speed
knots
gust
knots
rain 1hr
in
rain 24hr
in
rain mn
in
humidity
%
barometer
mb
20220812001250 80 240 1.7 4.3 0.00 0.00 0.00 78 1013.2
20220812000750 80 235 0.9 2.6 0.00 0.00 0.00 78 1013.2
20220811235750 80 234 0.9 4.3 0.00 0.00 0.00 77 1013.3
20220811231750 82 211 0.9 2.6 0.00 0.00 0.00 73 1013.5
20220811231250 82 211 1.7 2.6 0.00 0.00 0.00 73 1013.5
20220811230250 82 211 0.9 2.6 0.00 0.00 0.00 72 1013.5
20220811225750 82 211 0.9 2.6 0.00 0.00 0.00 71 1013.6
20220811224750 83 211 1.7 2.6 0.00 0.00 0.00 70 1013.5
20220811223750 83 211 0.9 2.6 0.00 0.00 0.00 69 1013.4
20220811222750 83 211 0.9 1.7 0.00 0.00 0.00 68 1013.4
20220811222250 83 211 0.9 2.6 0.00 0.00 0.00 68 1013.4
20220811221750 83 180 2.6 4.3 0.00 0.00 0.00 67 1013.3
20220811221250 83 161 0.0 1.7 0.00 0.00 0.00 66 1013.3
20220811220830 83 161 0.0 2.6 0.00 0.00 0.00 65 1013.4
20220811215250 84 161 0.0 0.0 0.00 0.00 0.00 65 1013.3
20220811213750 84 161 0.9 4.3 0.00 0.00 0.00 64 1013.2
20220811213249 84 160 0.9 4.3 0.00 0.00 0.00 64 1013.2
20220811212250 84 119 0.9 2.6 0.00 0.00 0.00 65 1013.1
20220811210750 85 113 1.7 5.2 0.00 0.00 0.00 66 1012.9
20220811204749 85 123 4.3 6.1 0.00 0.00 0.00 66 1012.7
20220811204249 85 143 4.3 5.2 0.00 0.00 0.00 66 1012.6
20220811203749 85 136 3.5 5.2 0.00 0.00 0.00 66 1012.6
20220811202749 86 122 4.3 8.7 0.00 0.00 0.00 65 1012.5
20220811202250 86 130 4.3 7.0 0.00 0.00 0.00 64 1012.4
20220811201749 86 136 4.3 7.0 0.00 0.00 0.00 64 1012.4
20220811200250 86 140 2.6 5.2 0.00 0.00 0.00 63 1012.3
20220811195750 86 140 4.3 6.1 0.00 0.00 0.00 63 1012.2
20220811194749 86 148 2.6 5.2 0.00 0.00 0.00 63 1012.1
20220811192750 87 150 3.5 6.1 0.00 0.00 0.00 63 1011.8
20220811190249 87 147 5.2 7.8 0.00 0.00 0.00 63 1011.5
20220811184750 88 122 5.2 7.0 0.00 0.00 0.00 62 1011.3
20220811183249 89 138 6.1 10.4 0.00 0.00 0.00 62 1011.3
20220811182249 89 122 6.1 7.8 0.00 0.00 0.00 60 1011.3
20220811181249 89 136 5.2 7.8 0.00 0.00 0.00 59 1011.3
20220811180750 90 124 5.2 7.0 0.00 0.00 0.00 58 1011.2
20220811180249 90 118 6.1 7.8 0.00 0.00 0.00 58 1011.2
20220811175749 90 128 5.2 10.4 0.00 0.00 0.00 57 1011.3
20220811174249 90 134 5.2 10.4 0.00 0.00 0.00 57 1011.2
20220811172749 90 136 7.8 12.2 0.00 0.00 0.00 59 1011.2
20220811172249 90 132 6.1 10.4 0.00 0.00 0.00 58 1011.3
20220811170249 91 128 5.2 10.4 0.00 0.00 0.00 58 1011.3
20220811165249 91 139 6.1 13.0 0.00 0.00 0.00 59 1011.4
20220811164749 91 127 7.0 13.9 0.00 0.00 0.00 58 1011.5
20220811164249 91 132 8.7 13.9 0.00 0.00 0.00 58 1011.5
20220811162748 91 121 7.0 10.4 0.00 0.00 0.00 61 1011.6
20220811161749 91 111 7.8 13.9 0.00 0.00 0.00 61 1011.7
20220811161249 91 123 8.7 13.9 0.00 0.00 0.00 60 1011.8
20220811160249 91 115 7.8 14.8 0.00 0.00 0.00 61 1011.9
20220811154249 91 122 7.8 12.2 0.00 0.00 0.00 63 1012.1
20220811151249 91 117 7.8 13.9 0.00 0.00 0.00 60 1012.3
20220811150748 92 110 7.0 13.0 0.00 0.00 0.00 62 1012.3
20220811150248 91 102 6.1 10.4 0.00 0.00 0.00 61 1012.3
20220811145249 91 119 6.1 12.2 0.00 0.00 0.00 62 1012.5
20220811143749 91 107 7.0 10.4 0.00 0.00 0.00 61 1012.6
20220811142248 92 107 6.1 11.3 0.00 0.00 0.00 61 1012.7
20220811140249 92 99 5.2 10.4 0.00 0.00 0.00 60 1012.8
20220811134249 92 105 4.3 10.4 0.00 0.00 0.00 59 1012.9
20220811133248 91 130 4.3 11.3 0.00 0.00 0.00 61 1012.9
20220811131749 91 114 6.1 10.4 0.00 0.00 0.00 61 1013.0
20220811131249 91 100 7.0 11.3 0.00 0.00 0.00 61 1013.1
20220811130748 91 72 4.3 10.4 0.00 0.00 0.00 61 1013.1
20220811130248 91 46 5.2 11.3 0.00 0.00 0.00 61 1013.1
20220811125748 92 120 5.2 10.4 0.00 0.00 0.00 62 1013.2
20220811125248 91 117 7.0 11.3 0.00 0.00 0.00 62 1013.2
20220811124248 91 102 6.1 10.4 0.00 0.00 0.00 61 1013.2
20220811123249 91 89 6.1 11.3 0.00 0.00 0.00 61 1013.3
20220811122748 92 110 5.2 11.3 0.00 0.00 0.00 61 1013.3
20220811122248 91 120 5.2 10.4 0.00 0.00 0.00 62 1013.3
20220811120248 91 111 4.3 10.4 0.00 0.00 0.00 62 1013.4
20220811114748 91 110 4.3 11.3 0.00 0.00 0.00 61 1013.5
20220811112249 90 113 5.2 10.4 0.00 0.00 0.00 63 1013.5
20220811111249 90 109 4.3 7.8 0.00 0.00 0.00 62 1013.5
20220811110748 90 90 6.1 10.4 0.00 0.00 0.00 62 1013.5
20220811110248 91 121 5.2 10.4 0.00 0.00 0.00 63 1013.5
20220811104248 90 126 6.1 11.3 0.00 0.00 0.00 64 1013.7
20220811103249 90 94 5.2 10.4 0.00 0.00 0.00 65 1013.6
20220811102748 90 107 4.3 7.0 0.00 0.00 0.00 65 1013.5
20220811100249 89 98 2.6 7.0 0.00 0.00 0.00 63 1013.6
20220811095249 88 45 2.6 5.2 0.00 0.00 0.00 63 1013.6
20220811094249 87 308 1.7 4.3 0.00 0.00 0.00 67 1013.7
20220811092749 87 11 2.6 5.2 0.00 0.00 0.00 67 1013.6
20220811092249 87 169 0.9 4.3 0.00 0.00 0.00 68 1013.5
20220811091750 87 169 1.7 2.6 0.00 0.00 0.00 68 1013.6
20220811091250 86 170 1.7 4.3 0.00 0.00 0.00 68 1013.6
20220811090250 86 165 1.7 4.3 0.00 0.00 0.00 71 1013.6
20220811084750 84 160 2.6 4.3 0.00 0.00 0.00 72 1013.6
20220811084250 84 21 0.0 2.6 0.00 0.00 0.00 72 1013.7
20220811081751 84 286 0.9 1.7 0.00 0.00 0.00 74 1013.7
20220811081250 84 291 0.9 2.6 0.00 0.00 0.00 74 1013.7
20220811080751 83 290 1.7 5.2 0.00 0.00 0.00 74 1013.7
20220811080251 83 270 2.6 5.2 0.00 0.00 0.00 75 1013.7
20220811075751 82 283 0.9 2.6 0.00 0.00 0.00 75 1013.7
20220811075251 82 299 2.6 6.1 0.00 0.00 0.00 75 1013.7
20220811073752 82 223 1.7 5.2 0.00 0.00 0.00 77 1013.7
20220811073252 81 224 2.6 5.2 0.00 0.00 0.00 77 1013.7
20220811072252 81 280 1.7 4.3 0.00 0.00 0.00 78 1013.6
20220811071752 80 242 1.7 4.3 0.00 0.00 0.00 78 1013.6
20220811070752 80 237 1.7 2.6 0.00 0.00 0.00 79 1013.5
20220811070252 80 237 1.7 2.6 0.00 0.00 0.00 80 1013.6
20220811065252 79 229 0.9 6.1 0.00 0.00 0.00 81 1013.5
20220811064252 78 219 1.7 2.6 0.00 0.00 0.00 83 1013.5
20220811063253 78 219 0.9 2.6 0.00 0.00 0.00 84 1013.3
20220811062753 77 219 1.7 2.6 0.00 0.00 0.00 84 1013.3
20220811062253 77 219 0.9 2.6 0.00 0.00 0.00 84 1013.3
20220811061753 77 219 1.7 4.3 0.00 0.00 0.00 84 1013.3
20220811055753 77 219 0.0 0.9 0.00 0.00 0.00 84 1013.2
20220811054753 77 219 0.9 2.6 0.00 0.00 0.00 84 1013.2
20220811053754 77 219 0.0 2.6 0.00 0.00 0.00 84 1013.2
20220811052254 77 219 0.0 1.7 0.00 0.00 0.00 83 1013.1
20220811051755 77 219 0.0 1.7 0.00 0.00 0.00 83 1013.2
20220811051255 77 219 0.0 1.7 0.00 0.00 0.00 83 1013.1
20220811050755 77 219 0.9 1.7 0.00 0.00 0.00 83 1013.1
20220811050255 77 219 0.0 0.9 0.00 0.00 0.00 83 1013.1
20220811045755 77 219 0.0 0.9 0.00 0.00 0.00 83 1013.1
20220811045254 77 219 0.0 0.0 0.00 0.00 0.00 83 1013.1
20220811044755 77 219 0.0 0.0 0.00 0.00 0.00 83 1013.1
20220811043755 77 219 0.0 0.0 0.00 0.00 0.00 83 1013.0
20220811043255 77 219 0.0 0.0 0.00 0.00 0.00 83 1013.0
20220811042756 77 219 0.0 0.9 0.00 0.00 0.00 83 1013.1
20220811035756 77 219 0.0 0.9 0.00 0.00 0.00 83 1013.0
20220811035257 77 219 0.0 0.9 0.00 0.00 0.00 83 1013.0
20220811034757 78 219 0.0 1.7 0.00 0.00 0.00 83 1013.0
20220811032756 78 219 0.9 1.7 0.00 0.00 0.00 82 1013.0
20220811031257 78 219 0.0 0.9 0.00 0.00 0.00 82 1013.0
20220811025258 78 219 0.9 2.6 0.00 0.00 0.00 82 1013.1
20220811023758 78 219 0.9 2.6 0.00 0.00 0.00 81 1013.2
20220811023258 78 218 0.9 2.6 0.00 0.00 0.00 81 1013.2
20220811021758 78 188 0.9 2.6 0.00 0.00 0.00 81 1013.2
20220811020758 79 188 0.0 1.7 0.00 0.00 0.00 80 1013.2
20220811020258 79 188 1.7 2.6 0.00 0.00 0.00 80 1013.2
20220811015259 79 187 0.9 2.6 0.00 0.00 0.00 80 1013.1
20220811014759 79 185 0.9 2.6 0.00 0.00 0.00 80 1013.1
20220811014259 79 184 0.9 2.6 0.00 0.00 0.00 80 1013.1
20220811013759 80 184 0.9 1.7 0.00 0.00 0.00 80 1013.1
20220811012759 80 184 0.0 1.7 0.00 0.00 0.00 79 1013.1
20220811011800 80 184 0.0 1.7 0.00 0.00 0.00 79 1013.1
20220811011259 80 184 0.0 2.6 0.00 0.00 0.00 79 1013.1
20220811010759 81 184 0.0 0.9 0.00 0.00 0.00 79 1013.2
20220811010300 81 184 0.0 2.6 0.00 0.00 0.00 78 1013.3
20220811004800 81 184 0.0 0.0 0.00 0.00 0.00 78 1013.2
20220811003800 81 184 0.9 2.6 0.00 0.00 0.00 78 1013.2
20220811003301 81 153 0.0 2.6 0.00 0.00 0.00 78 1013.1